TimeCST,TemperatureF,Dew PointF,Humidity,Sea Level PressureIn,VisibilityMPH,Wind Direction,Wind SpeedMPH,Gust SpeedMPH,PrecipitationIn,Events,Conditions,WindDirDegrees,DateUTC
12:53 AM,62.1,51.1,67,30.16,10.0,NE,9.2,-,N/A,,Clear,50,2013-11-04 06:53:00
1:53 AM,62.1,53.1,72,30.14,10.0,ENE,8.1,-,N/A,,Scattered Clouds,60,2013-11-04 07:53:00
2:53 AM,62.1,53.1,72,30.14,10.0,ENE,10.4,-,N/A,,Overcast,60,2013-11-04 08:53:00
3:53 AM,63.0,54.0,72,30.15,10.0,NE,11.5,-,N/A,,Overcast,50,2013-11-04 09:53:00
4:53 AM,63.0,53.1,70,30.15,10.0,ENE,12.7,-,N/A,,Overcast,60,2013-11-04 10:53:00
5:53 AM,61.0,53.1,75,30.16,10.0,ENE,9.2,-,N/A,,Overcast,70,2013-11-04 11:53:00
6:53 AM,62.1,54.0,75,30.18,10.0,East,8.1,-,N/A,,Overcast,80,2013-11-04 12:53:00
7:53 AM,63.0,55.0,75,30.21,10.0,ENE,8.1,-,N/A,,Overcast,60,2013-11-04 13:53:00
8:53 AM,63.0,55.0,75,30.22,10.0,NE,8.1,-,N/A,,Overcast,50,2013-11-04 14:53:00
9:53 AM,64.9,55.9,73,30.23,10.0,ENE,11.5,-,N/A,,Overcast,60,2013-11-04 15:53:00
10:53 AM,66.0,57.0,73,30.22,10.0,ENE,10.4,-,N/A,,Overcast,70,2013-11-04 16:53:00
11:53 AM,68.0,57.0,68,30.21,10.0,ENE,9.2,-,N/A,,Overcast,60,2013-11-04 17:53:00
12:53 PM,69.1,57.9,68,30.18,10.0,East,15.0,-,N/A,,Scattered Clouds,80,2013-11-04 18:53:00
1:53 PM,70.0,57.9,65,30.15,10.0,East,19.6,-,N/A,,Clear,90,2013-11-04 19:53:00
2:53 PM,70.0,60.1,71,30.15,10.0,East,19.6,-,N/A,,Clear,80,2013-11-04 20:53:00
3:53 PM,70.0,61.0,73,30.14,10.0,East,21.9,26.5,N/A,,Clear,90,2013-11-04 21:53:00
4:53 PM,69.1,62.1,78,30.13,10.0,East,18.4,24.2,N/A,,Scattered Clouds,90,2013-11-04 22:53:00
5:53 PM,68.0,63.0,84,30.16,10.0,East,13.8,-,N/A,,Mostly Cloudy,80,2013-11-04 23:53:00
6:53 PM,66.9,63.0,87,30.16,10.0,East,12.7,-,N/A,,Clear,80,2013-11-05 00:53:00
7:53 PM,68.0,63.0,84,30.16,10.0,East,10.4,-,N/A,,Mostly Cloudy,80,2013-11-05 01:53:00
8:53 PM,69.1,62.1,78,30.16,10.0,East,15.0,-,N/A,,Scattered Clouds,90,2013-11-05 02:53:00
9:53 PM,68.0,62.1,81,30.16,10.0,East,13.8,-,N/A,,Overcast,80,2013-11-05 03:53:00
10:53 PM,68.0,59.0,73,30.15,10.0,ENE,17.3,-,N/A,,Overcast,70,2013-11-05 04:53:00
11:53 PM,68.0,59.0,73,30.14,10.0,East,15.0,-,N/A,,Overcast,80,2013-11-05 05:53:00